Regional Weather Roundup
Issued by NWS

Home | Current Version | Previous Version | Text Only | Print | Product List | Glossary Off
Versions: 1 2 3 4 5 6 7 8 9 10 11 12 13 14 15 16 17 18 19 20 21 22 23 24 25 26 27 28 29 30 31 32 33 34 35 36 37 38 39 40 41 42 43 44 45 46 47 48 49 50

000
ASUS43 KMKX 271520
RWRWI

WISCONSIN REGIONAL WEATHER ROUNDUP
NATIONAL WEATHER SERVICE MILWAUKEE/SULLIVAN WI
1000 AM CDT WED MAY 27 2015

NOTE: "FAIR" INDICATES FEW OR NO CLOUDS BELOW 12,000 FEET WITH NO
SIGNIFICANT WEATHER AND/OR OBSTRUCTIONS TO VISIBILITY.

WIZ001-002-006>008-014>016-023>028-271600-
NORTHWEST WISCONSIN

CITY           SKY/WX    TMP DP  RH WIND       PRES   REMARKS
SUPERIOR ARPT  MOSUNNY   66  57  72 SW9       29.84S
ASHLAND        PTSUNNY   66  57  72 SW9       29.84R
HAYWARD        PTSUNNY   62  54  74 W8        29.90R
SIREN          MOSUNNY   65  56  70 SW13      29.90S
CUMBERLAND     MOSUNNY   63  54  72 SW12      29.92R
RICE LAKE      MOSUNNY   64  54  71 SW7       29.93S
CHETEK         MOSUNNY   63  57  80 SW5       29.92S
LADYSMITH      PTSUNNY   62  57  84 SW6       29.93S
EAU CLAIRE     NOT AVBL
MENOMONIE      MOSUNNY   66  58  75 SW7       29.93S
NEW RICHMOND   MOSUNNY   65  58  79 SW9       29.93S
OSCEOLA        MOSUNNY   66  62  85 SW7       29.95R
$$

WIZ003>005-009-010-017-018-271600-
NORTH CENTRAL WISCONSIN

CITY           SKY/WX    TMP DP  RH WIND       PRES   REMARKS
MANITOWISH WTR PTSUNNY   60  57  88 W8        29.87R
ARBOR VITAE    FAIR      59  56  92 W3        29.88R
WOODRUFF       FAIR      59  56  92 W3        29.88R
RHINELANDER    LGT RAIN  56  54  93 W3        29.90R FOG
EAGLE RIVER    CLOUDY    57  56  97 W8        29.86R
LAND O LAKES   CLOUDY    60  56  88 W7        29.86S
PHILLIPS       CLOUDY    58  56  90 SW9       29.89S
TOMAHAWK       CLOUDY    55  54  95 CALM      29.90S FOG
MEDFORD        CLOUDY    56  55  95 SW8       29.93S
MERRILL        RAIN      57  57 100 W6        29.92R
$$

WIZ029-030-035-036-043>047-271600-
CENTRAL WISCONSIN

CITY           SKY/WX    TMP DP  RH WIND       PRES   REMARKS
WAUSAU         LGT RAIN  58  56  93 W8        29.90R FOG
MOSINEE        LGT RAIN  57  57 100 W64         N/A
MARSHFIELD     LGT RAIN  59  55  87 W8        29.94R
STEVENS POINT  LGT RAIN  56  55  95 W5        29.93R
WAUPACA        LGT RAIN  61  58  88 NW8       29.91R
WAUTOMA        CLOUDY    63  57  82 NW14      29.92R
WISC RAPIDS    LGT RAIN  61  56  83 W7        29.95R
CAMP DOUGLAS   PTSUNNY   64  57  77 VRB6      29.96R
$$

WIZ011>013-019>022-031-037>040-048>050-271600-
NORTHEAST WISCONSIN

CITY           SKY/WX    TMP DP  RH WIND       PRES   REMARKS
ANTIGO         LGT RAIN  55  55  97 W9        29.90R
SHAWANO        DRIZZLE   59  56  91 W7        29.88R
OCONTO         CLOUDY    58  58 100 NW6       29.84R
STURGEON BAY   CLOUDY    57  54  88 W9        29.86R
GREEN BAY      LGT RAIN  60  57  89 W9        29.88R FOG
MANITOWOC      NOT AVBL
APPLETON       LGT RAIN  59  57  94 W14       29.89R FOG
CLINTONVILLE   RAIN      57  55  94 W10       29.88R
OSHKOSH        CLOUDY    62  54  74 NW16      29.90R
$$

WIZ032>034-041-042-053>061-271600-
SOUTHWEST WISCONSIN

CITY           SKY/WX    TMP DP  RH WIND       PRES   REMARKS
LA CROSSE      SUNNY     67  57  70 CALM      29.95S
SPARTA         MOSUNNY   63  55  76 W3        29.96R
VIROQUA        PTSUNNY   62  58  88 NW7       29.96R
BOSCOBEL       PTSUNNY   67  57  70 W7        29.97R
PRAIRIE DU CHI MOSUNNY   65  56  70 NW9       29.97R
PLATTEVILLE    PTSUNNY   63  60  91 W13       29.98R
$$

WIZ056-057-062-063-064-067-068-271600-
SOUTH CENTRAL WISCONSIN

CITY           SKY/WX    TMP DP  RH WIND       PRES   REMARKS
REEDSBURG      CLOUDY    61  57  87 NW7       29.94R
BARABOO/DELLS  CLOUDY    61  56  83 NW9       29.94R
LONE ROCK      NOT AVBL
MINERAL POINT  CLOUDY    63  57  82 W10       29.97R
MADISON        CLOUDY    63  57  81 NW9       29.93R
MIDDLETON      CLOUDY    63  58  83 NW15      29.94R
WATERTOWN      LGT RAIN  61  61 100 W8        29.91R
MONROE         RAIN      61  57  88 W10G17    29.95S
JANESVILLE     PTSUNNY   66  57  72 W13G18    29.93S
$$

WIZ051-052-058>065-066-070>072-271600-
SOUTHEAST WISCONSIN

CITY           SKY/WX    TMP DP  RH WIND       PRES   REMARKS
MILWAUKEE      PTSUNNY   67  59  75 SW9       29.90F
WAUKESHA       CLOUDY    63  57  82 W12G17    29.93R
MILWAUKEE/TIMM CLOUDY    66  55  68 W12       29.91R
RACINE         LGT RAIN  63  60  90 W9        29.93S
BURLINGTON     CLOUDY    63  61  94 W8        29.92S
KENOSHA        PTSUNNY   68  60  75 W14       29.92R
FOND DU LAC    CLOUDY    63  55  75 NW14      29.90R
SHEBOYGAN      CLOUDY    65  57  75 W12G21    29.88R
WEST BEND      CLOUDY    63  55  77 SW8       29.90R
JUNEAU         HVY RAIN  60  58  96 W7        29.92R
$$

LSZ147-162-271600-
LAKE SUPERIOR

STATION/POSITION TIME  TEMP    WIND        PRES    WAVE
                       AIR SEA DIR/SP/G            HT/PER
                 (UTC) (F)     (DEG/KT/KT) (MB)    (FT/S)
W MID LAKE BUOY  1350   41 37  230/ 12/ 12 1088.0R   1/ 3
DEVILS ISLAND    1400   55     230/ 15/ 17   N/A
PORT WING        1300   60     180/  5/  8   N/A
SAXON HARBOR     1440   66     220/ 10/ 13   N/A
$$

LMZ867-665-643>646-271600-
LAKE MICHIGAN

STATION/POSITION TIME  TEMP    WIND        PRES    WAVE
                       AIR SEA DIR/SP/G            HT/PER
                 (UTC) (F)     (DEG/KT/KT) (MB)    (FT/S)
CHAMBERS ISLAND  1400   56     300/  5/ 10   N/A
N MID LAKE BUOY  1350   44 37  220/  8/  8 1087.0R   4/ 6
NORTHPORT PIER   1400   56     280/  4/  9 1088.0R
SISTER BAY       1418   54     330/ 11/ 13   N/A
ALGOMA LAKESHORE 1408          260/  7/ 12   N/A
KEWAUNEE LAKESHO 1400   61     280/ 14/ 20   N/A
SHEBOYGAN LAKESH 1400   65     260/ 10/ 14   N/A
PORT WASHINGTON  1400   67     260/  9/ 14   N/A
ATWATER BUOY     1400   61 46  240/ 12/ 14   N/A
MILWAUKEE LAKESH 1400   64     260/ 11/ 14   N/A
S MID LAKE BUOY  1350   47 38  210/ 14/ 16   N/A     1/ 3
$$

TC  - TEMPERATURE IN CELSIUS
VSB - VISIBILITY IN STATUTE MILES
WCI - WIND CHILL INDEX
HX  - HEAT INDEX



USA.gov is the U.S. government's official web portal to all federal, state and local government web resources and services.